Weather History for Viroqua, WI

Change the Weather History Date:

Friday, February 28, 2014

  Actual Average (KLSE) Record (KLSE)
Temperature  
Mean Temperature 4 °F 28 °F  
Max Temperature 18 °F 36 °F 61 °F (1878)
Min Temperature -9 °F 19 °F -17 °F (1962)
Degree Days  
Heating Degree Days 60 38  
Month to date heating degree days 1191  
Since 1 July heating degree days 5509  
Cooling Degree Days 0 0  
Month to date cooling degree days 0  
Year to date cooling degree days 0  
Moisture  
Dew Point -1 °F    
Average Humidity 70    
Maximum Humidity 98    
Minimum Humidity 55    
Precipitation  
Precipitation 0.08 in 0.05 in 0.85 in (1939)
Month to date precipitation 1.05  
Year to date precipitation 2.17  
Snow  
Snow 0.00 in 0.30 in 10.90 in (1939)
Month to date snowfall 8.2  
Since 1 July snowfall 34.5  
Snow Depth -    
Sea Level Pressure  
Sea Level Pressure 29.96 in    
Wind  
Wind Speed 8 mph (SSE)    
Max Wind Speed 16 mph    
Max Gust Speed 22 mph    
Visibility 8 miles    
Events      
T = Trace of Precipitation, MM = Missing Value Source: NWS Daily Summary

Daily Weather History Graph

Daily Weather History Graph

Search for Another Location

Airport:

Trip Planner

Search our weather history database for the weather conditions in past years. The results will help you decide how hot, cold, wet, or windy it might be!

Date:

Astronomy

Feb. 28, 2014 Rise Set
Actual Time 6:41 AM CST 5:51 PM CST
Civil Twilight 6:12 AM CST 6:19 PM CST
Nautical Twilight 5:39 AM CST 6:53 PM CST
Astronomical Twilight 5:06 AM CST 7:26 PM CST
Moon 5:56 AM CST (2/28) 5:28 PM CST (2/28)
Length of Visible Light 12h 07m
Length of Day
11h 09m
Waning Crescent, 1% of the Moon is Illuminated
Feb 28
Waning Crescent
Mar 1
New
Mar 8
First Quarter
Mar 16
Full
Mar 23
Last Quarter

Hourly Weather History & Observations

Time (CST) Temp. Windchill Dew Point Humidity Pressure Visibility Wind Dir Wind Speed Gust Speed Precip Events Conditions
12:15 AM -5.8 °F -16.7 °F -17.9 °F 56% 30.06 in 10.0 mi ESE 4.6 mph - N/A   Clear
12:35 AM -6.9 °F -17.9 °F -18.8 °F 56% 30.05 in 10.0 mi ESE 4.6 mph - N/A   Clear
12:55 AM -7.1 °F -19.9 °F -18.6 °F 57% 30.06 in 10.0 mi SE 5.8 mph - N/A   Clear
1:15 AM -7.4 °F -20.4 °F -18.2 °F 59% 30.05 in 10.0 mi SE 5.8 mph - N/A   Clear
1:35 AM -6.9 °F -19.7 °F -18.6 °F 57% 30.05 in 10.0 mi ESE 5.8 mph - N/A   Clear
1:55 AM -8.5 °F -23.2 °F -18.4 °F 62% 30.05 in 10.0 mi ESE 6.9 mph - N/A   Clear
2:15 AM -9.6 °F -24.5 °F -18.4 °F 65% 30.04 in 10.0 mi ESE 6.9 mph - N/A   Clear
2:35 AM -5.4 °F -20.8 °F -16.2 °F 60% 30.03 in 10.0 mi SE 8.1 mph - N/A   Mostly Cloudy
2:55 AM -5.3 °F -21.7 °F -16.1 °F 60% 30.02 in 10.0 mi SE 9.2 mph - N/A   Overcast
3:15 AM -6.2 °F -21.7 °F -16.6 °F 61% 30.02 in 10.0 mi SE 8.1 mph - N/A   Scattered Clouds
3:35 AM -6.2 °F -22.8 °F -17.0 °F 60% 30.01 in 10.0 mi SE 9.2 mph - N/A   Clear
3:55 AM -6.5 °F -24.3 °F -16.8 °F 61% 30.00 in 10.0 mi SE 10.4 mph - N/A   Clear
4:15 AM -6.2 °F -23.9 °F -16.4 °F 61% 30.00 in 10.0 mi SE 10.4 mph - N/A   Clear
4:35 AM -6.7 °F -24.5 °F -15.9 °F 64% 30.00 in 10.0 mi SE 10.4 mph - N/A   Clear
4:55 AM -6.7 °F -23.5 °F -15.7 °F 65% 30.00 in 10.0 mi SE 9.2 mph - N/A   Clear
5:15 AM -6.7 °F -23.5 °F -15.2 °F 67% 30.01 in 10.0 mi SE 9.2 mph - N/A   Clear
5:35 AM -5.8 °F -23.4 °F -14.6 °F 66% 30.00 in 10.0 mi SE 10.4 mph - N/A   Mostly Cloudy
5:55 AM -5.1 °F -22.5 °F -14.1 °F 65% 30.00 in 10.0 mi SE 10.4 mph - N/A   Mostly Cloudy
6:15 AM -4.2 °F -22.3 °F -13.9 °F 63% 30.00 in 10.0 mi SE 11.5 mph - N/A   Mostly Cloudy
6:35 AM -3.6 °F -22.5 °F -13.2 °F 64% 29.99 in 10.0 mi SSE 12.7 mph - N/A   Overcast
6:55 AM -3.1 °F -21.0 °F -12.6 °F 64% 29.99 in 10.0 mi SSE 11.5 mph - N/A   Overcast
7:15 AM -2.2 °F -20.7 °F -11.9 °F 63% 29.99 in 10.0 mi SSE 12.7 mph - N/A   Overcast
7:35 AM -1.5 °F -19.8 °F -11.2 °F 63% 29.99 in 10.0 mi SE 12.7 mph 18.4 mph N/A   Overcast
7:55 AM -0.9 °F -18.3 °F -10.7 °F 63% 29.99 in 10.0 mi SSE 11.5 mph - N/A   Overcast
8:15 AM 0.1 °F -18.5 °F -10.1 °F 62% 29.98 in 10.0 mi SE 13.8 mph - N/A   Overcast
8:35 AM 0.7 °F -16.2 °F -9.2 °F 63% 29.97 in 10.0 mi SE 11.5 mph - N/A   Overcast
8:55 AM 1.6 °F -16.7 °F -8.7 °F 62% 29.97 in 10.0 mi SE 13.8 mph - N/A   Overcast
9:15 AM 2.8 °F -13.5 °F -7.8 °F 61% 29.97 in 10.0 mi SE 11.5 mph 18.4 mph N/A   Overcast
9:35 AM 4.1 °F -12.7 °F -7.1 °F 60% 29.95 in 10.0 mi SE 12.7 mph 18.4 mph N/A   Overcast
9:55 AM 5.5 °F -12.9 °F -5.8 °F 60% 29.94 in 10.0 mi SE 16.1 mph - N/A   Overcast
10:15 AM 6.4 °F -9.0 °F -5.3 °F 59% 29.95 in 10.0 mi SSE 11.5 mph - N/A   Overcast
10:35 AM 7.3 °F -10.0 °F -4.7 °F 58% 29.94 in 10.0 mi SSE 15.0 mph 20.7 mph N/A   Overcast
10:55 AM 8.6 °F -6.3 °F -3.8 °F 57% 29.94 in 10.0 mi SSE 11.5 mph - N/A   Overcast
11:15 AM 9.7 °F -7.0 °F -3.3 °F 56% 29.93 in 10.0 mi SE 15.0 mph - N/A   Overcast
11:35 AM 10.6 °F -4.5 °F -2.4 °F 56% 29.92 in 10.0 mi SE 12.7 mph 17.3 mph N/A   Overcast
11:55 AM 10.9 °F -5.4 °F -2.6 °F 55% 29.91 in 10.0 mi SSE 15.0 mph 21.9 mph N/A   Overcast
12:15 PM 11.3 °F -4.9 °F -1.3 °F 57% 29.89 in 10.0 mi SE 15.0 mph 19.6 mph N/A   Overcast
12:35 PM 12.2 °F -3.1 °F -0.0 °F 58% 29.88 in 10.0 mi SE 13.8 mph 20.7 mph N/A   Overcast
12:55 PM 13.3 °F 0.3 °F 0.5 °F 57% 29.89 in 10.0 mi SSE 10.4 mph - N/A   Overcast
1:15 PM 14.5 °F 2.7 °F 1.6 °F 57% 29.89 in 10.0 mi South 9.2 mph - N/A   Overcast
1:35 PM 15.3 °F 3.5 °F 2.5 °F 57% 29.89 in 10.0 mi South 9.2 mph - N/A   Overcast
1:55 PM 16.0 °F 5.3 °F 2.7 °F 56% 29.90 in 10.0 mi South 8.1 mph - N/A   Overcast
2:15 PM 16.9 °F 6.4 °F 3.0 °F 55% 29.89 in 10.0 mi SSW 8.1 mph - N/A   Overcast
2:35 PM 17.4 °F 8.0 °F 3.6 °F 55% 29.90 in 10.0 mi South 6.9 mph - N/A   Overcast
2:55 PM 17.6 °F 6.4 °F 4.3 °F 56% 29.90 in 10.0 mi SSW 9.2 mph - N/A   Overcast
3:15 PM 17.4 °F 6.2 °F 4.8 °F 58% 29.89 in 10.0 mi South 9.2 mph - N/A   Overcast
3:35 PM 17.6 °F 6.4 °F 5.4 °F 59% 29.89 in 10.0 mi South 9.2 mph - N/A   Overcast
3:55 PM 18.3 °F 7.3 °F 6.8 °F 61% 29.89 in 5.0 mi South 9.2 mph - N/A   Overcast
4:15 PM 17.6 °F 7.3 °F 9.5 °F 71% 29.89 in 1.2 mi SSW 8.1 mph - N/A   Overcast
4:35 PM 17.2 °F 8.9 °F 12.0 °F 80% 29.90 in 0.5 mi SSW 5.8 mph - N/A   Overcast
4:55 PM 16.5 °F 9.4 °F 13.6 °F 88% 29.90 in 0.5 mi SW 4.6 mph - N/A   Overcast
5:15 PM 16.2 °F 10.6 °F 13.8 °F 90% 29.91 in 0.2 mi SW 3.5 mph - N/A   Overcast
5:35 PM 16.2 °F - 14.2 °F 92% 29.91 in 0.2 mi Calm Calm - 0.02 in   Overcast
5:54 PM 16.2 °F 10.6 °F 14.4 °F 93% 29.92 in 0.5 mi SW 3.5 mph - 0.03 in   Overcast
6:15 PM 16.2 °F 10.6 °F 14.9 °F 95% 29.93 in 0.5 mi SW 3.5 mph - 0.02 in   Overcast
6:35 PM 16.2 °F 10.6 °F 14.9 °F 95% 29.94 in 1.0 mi SW 3.5 mph - 0.03 in   Overcast
6:55 PM 16.2 °F - 14.9 °F 95% 29.94 in 1.0 mi Calm Calm - 0.04 in   Overcast
7:15 PM 16.0 °F - 15.3 °F 97% 29.94 in 1.0 mi Calm Calm - N/A   Overcast
7:35 PM 16.0 °F 10.4 °F 15.3 °F 97% 29.95 in 1.2 mi West 3.5 mph - 0.01 in   Overcast
7:55 PM 16.2 °F 10.6 °F 15.3 °F 96% 29.95 in 1.5 mi West 3.5 mph - 0.01 in   Overcast
8:15 PM 15.8 °F 8.6 °F 14.9 °F 96% 29.95 in 1.5 mi WNW 4.6 mph - N/A   Overcast
8:35 PM 15.8 °F 10.2 °F 15.4 °F 98% 29.96 in 3.0 mi WNW 3.5 mph - N/A   Overcast
8:55 PM 15.8 °F 8.6 °F 14.9 °F 96% 29.97 in 4.0 mi NW 4.6 mph - N/A   Overcast
9:15 PM 16.2 °F 7.6 °F 14.7 °F 94% 29.97 in 3.0 mi WNW 5.8 mph - N/A   Overcast
9:35 PM 16.2 °F 6.5 °F 14.0 °F 91% 29.98 in 3.0 mi WNW 6.9 mph - N/A   Overcast
9:55 PM 15.8 °F 5.1 °F 13.6 °F 91% 29.98 in 4.0 mi NW 8.1 mph - N/A   Overcast
10:15 PM 15.8 °F 4.2 °F 12.6 °F 87% 29.98 in 7.0 mi NW 9.2 mph - N/A   Overcast
10:35 PM 15.6 °F 4.0 °F 12.2 °F 86% 29.99 in 5.0 mi NW 9.2 mph - N/A   Overcast
10:55 PM 15.4 °F 3.0 °F 11.5 °F 84% 30.00 in 10.0 mi NW 10.4 mph - N/A   Overcast
11:15 PM 15.3 °F 3.5 °F 11.3 °F 84% 30.00 in 10.0 mi NNW 9.2 mph - N/A   Overcast
11:35 PM 14.7 °F 1.4 °F 10.4 °F 83% 30.02 in 5.0 mi NNW 11.5 mph - N/A   Overcast
11:55 PM 14.4 °F 0.9 °F 10.4 °F 84% 30.02 in 4.0 mi NW 11.5 mph - N/A   Overcast